Velkommen til Søllested vejret

webcam Søllestedvejret  webcam Søllestedvejret


Thunder radar more information blitzortung!


3 Timers nedbørs radar more information rain snow radar


Besøg nogle andre vejrsider:

Template documentation
and downloads

And another site



No particular awareness of the weather is required.    There are no Weather-warnings

Weather Underground Historie, Tekst side

Dagens Sammenfatning af April 24, 2019 Enheder:  Metrisk    Engelsk   Både
« Forgående Dag
Næste Dag »
Dagens Ugenligt månedlig Årligt Tilpasset
  Aktuelt: Høj: Lav: Gennemsnit:
Temperatur: -11 °C -17.8 °C -11.9 °C -11.6 °C
Dugpunkt: -13.3 °C -17.8 °C -13.3 °C -13.1 °C
Luftfugtighed: 76 % Humidity % 76 % 81 %
Vindhastighed: 41.7 km/h 0 km/h 18.2 km/h 33.6 km/h
Vindstød: 35.4 km/h 0 km/h - -
Vind:South - - East
Lufttryk: 34080.1 hPa 0 hPa 34073.3 hPa -
Nedbør: 0 mm      
Historical Graphs
 
 
Tabeldata for April 24, 2019
Tid Temperatur Dugpunkt Lufttryk Vind Vindhastighed Vindstød Luftfugtighed Regn (timme)
-17.8 °C -17.8 °C 0 hPa Calm     Humidity % 0 mm
00:00 -11.9 °C -13 °C 34137.7 hPa NE 31.1 km/h 44.1 km/h 88 % 0 mm
00:05 -11.9 °C -12.9 °C 34137.7 hPa East 38.8 km/h 30.1 km/h 89 % 33.02 mm
00:10 -11.9 °C -12.9 °C 34137.7 hPa ENE 29.8 km/h 24.6 km/h 89 % 25.4 mm
00:15 -11.9 °C -12.8 °C 34134.3 hPa ENE 18.2 km/h 31.1 km/h 89 % 0 mm
00:20 -11.8 °C -12.8 °C 34134.3 hPa ENE 31.1 km/h 49.2 km/h 89 % 0 mm
00:25 -11.8 °C -12.8 °C 34130.9 hPa ENE 23.3 km/h 38.8 km/h 89 % 0 mm
00:30 -11.9 °C -12.9 °C 34130.9 hPa NE 36.2 km/h 54.4 km/h 89 % 0 mm
00:35 -11.9 °C -12.9 °C 34127.5 hPa NE 32.8 km/h 23.5 km/h 89 % 7.62 mm
00:40 -11.9 °C -12.9 °C 34127.5 hPa ENE 20.8 km/h 46.7 km/h 89 % 0 mm
00:45 -11.9 °C -12.9 °C 34127.5 hPa NE 23.3 km/h 44.1 km/h 89 % 0 mm
00:50 -11.9 °C -12.9 °C 34124.1 hPa ENE 20.8 km/h 33.6 km/h 89 % 0 mm
00:55 -11.9 °C -12.9 °C 34124.1 hPa ENE 18.2 km/h 38.8 km/h 88 % 0 mm
01:00 -11.9 °C -13 °C 34120.7 hPa East 23.3 km/h 44.1 km/h 88 % 0 mm
01:05 -11.9 °C -12.9 °C 34117.3 hPa ENE 25.9 km/h 49.2 km/h 88 % 0 mm
01:10 -11.9 °C -12.9 °C 34120.7 hPa East 31.1 km/h 98.3 km/h 88 % 0 mm
01:15 -11.9 °C -13 °C 34117.3 hPa East 33.6 km/h 44.1 km/h 87 % 0 mm
01:20 -11.8 °C -13 °C 34114 hPa SE 32.8 km/h 22 km/h 87 % 0 mm
01:25 -11.8 °C -13 °C 34114 hPa East 25.9 km/h 51.8 km/h 86 % 0 mm
01:30 -11.7 °C -12.9 °C 34114 hPa East 36.2 km/h 49.2 km/h 86 % 0 mm
01:35 -11.6 °C -13 °C 34110.6 hPa ENE 31.1 km/h 57 km/h 85 % 0 mm
01:40 -11.6 °C -13 °C 34107.2 hPa ESE 41.7 km/h 34.9 km/h 84 % 0 mm
01:45 -11.5 °C -12.9 °C 34107.2 hPa East 31.1 km/h 46.7 km/h 84 % 0 mm
01:50 -11.4 °C -13 °C 34107.2 hPa East 20.8 km/h 44.1 km/h 83 % 0 mm
01:55 -11.4 °C -12.9 °C 34103.8 hPa East 33.6 km/h 54.4 km/h 83 % 0 mm
02:00 -11.3 °C -12.9 °C 34103.8 hPa East 23.3 km/h 46.7 km/h 83 % 0 mm
02:05 -11.3 °C -12.9 °C 34100.4 hPa East 25.9 km/h 46.7 km/h 82 % 0 mm
02:10 -11.2 °C -12.9 °C 34100.4 hPa ESE 38.8 km/h 30.1 km/h 82 % 0 mm
02:15 -11.2 °C -12.9 °C 34097 hPa ESE 33.6 km/h 46.7 km/h 81 % 0 mm
02:20 -11.2 °C -13 °C 34097 hPa ESE 31.1 km/h 54.4 km/h 80 % 0 mm
02:25 -11.2 °C -13.1 °C 34097 hPa East 36.2 km/h 51.8 km/h 79 % 0 mm
02:30 -11.1 °C -13.1 °C 34093.6 hPa East 36.2 km/h 62.1 km/h 79 % 0 mm
02:35 -11.1 °C -13.1 °C 34093.6 hPa ESE 23.3 km/h 46.7 km/h 79 % 0 mm
02:40 -11.2 °C -13.2 °C 34090.2 hPa ESE 33.6 km/h 44.1 km/h 78 % 0 mm
02:45 -11.2 °C -13.2 °C 34090.2 hPa ESE 53.6 km/h 29.5 km/h 78 % 0 mm
02:50 -11.2 °C -13.2 °C 34086.9 hPa ESE 32.8 km/h 24.1 km/h 78 % 0 mm
02:54 -11.1 °C -13.2 °C 34083.5 hPa East 38.8 km/h 25.6 km/h 78 % 0 mm
02:59 -11.1 °C -13.2 °C 34083.5 hPa East 53.6 km/h 40.1 km/h 78 % 0 mm
03:04 -11.1 °C -13.2 °C 34083.5 hPa East 41.7 km/h 36.5 km/h 77 % 0 mm
03:09 -11.1 °C -13.2 °C 34083.5 hPa East 33.6 km/h 38.1 km/h 77 % 0 mm
03:14 -11.1 °C -13.2 °C 34083.5 hPa NE 52 km/h 30.1 km/h 77 % 0 mm
03:19 -11.1 °C -13.2 °C 34083.5 hPa ENE 38.8 km/h 32.7 km/h 77 % 0 mm
03:24 -11 °C -13.2 °C 34080.1 hPa East 44.7 km/h 28.5 km/h 77 % 0 mm
03:29 -11.1 °C -13.2 °C 34083.5 hPa East 39.6 km/h 37.5 km/h 77 % 0 mm
03:34 -11 °C -13.2 °C 34080.1 hPa ESE 44.7 km/h 31.4 km/h 77 % 0 mm
03:39 -11 °C -13.2 °C 34080.1 hPa ESE 44.7 km/h 28.5 km/h 77 % 0 mm
03:44 -11.1 °C -13.2 °C 34076.7 hPa ENE 30.6 km/h 24.8 km/h 77 % 0 mm
03:49 -11.1 °C -13.2 °C 34076.7 hPa East 53.6 km/h 33.5 km/h 77 % 0 mm
03:54 -11 °C -13.2 °C 34073.3 hPa ENE 38.8 km/h 35.7 km/h 77 % 0 mm
03:59 -11 °C -13.2 °C 34076.7 hPa ESE 47.6 km/h 42.6 km/h 77 % 0 mm
04:04 -11 °C -13.2 °C 34076.7 hPa ESE 47.6 km/h 34.4 km/h 77 % 0 mm
04:09 -11 °C -13.3 °C 34080.1 hPa South 41.7 km/h 35.4 km/h 76 % 0 mm
Søllestedvejret
Tilladelse af Weather Underground - 1.75 mb

Script udviklet af  Jim McMurry - jmcmurry@mwt.net Tilpasset til dette template  Wim van der Kuil - Leuven-Template.eu